This demonstration page uses our WeatherBlox Daily Observations layout. Learn more.

38.89511, -77.03637

Hourly Observations for September 27, 2020

Temp ( °F °C ) Dew Point ( °F °C ) Humidity (%) Winds ( mph kmh ) Pressure ( in mb ) Visibility ( mi km ) Precip ( " mm )
12:52 am 00:52 Cloudy with Light Drizzle 69 20.6 67 19.4 93 93 N 5 7 29.98 1015 6 9.65604 0.001 0.001
1:03 am 01:03 Cloudy with Light Rain 69 20.6 67 19.4 93 93 Calm 29.98 1015 6 9.65604 0.001 0.001
1:24 am 01:24 Cloudy with Light Rain 69 20.6 67 19.4 93 93 Calm 29.98 1015 4 6.43736 0.001 0.001
1:34 am 01:34 Cloudy with Light Drizzle 69 20.6 67 19.4 93 93 Calm 29.98 1015 2.5 4.02335 0.01 0.254
1:52 am 01:52 Cloudy with Light Drizzle 69 20.6 67 19.4 93 93 Calm 29.97 1015 2.5 4.02335 0.01 0.254
2:52 am 02:52 Cloudy with Light Drizzle 68 20 67 19.4 96 96 Calm 29.96 1015 2.5 4.02335 0.001 0.001
2:59 am 02:59 Cloudy with Mist and Fog 68 20 67 19.4 96 96 NNW 3 6 29.97 1015 4 6.43736 0.001 0.001
3:52 am 03:52 Cloudy with Mist and Fog 69 20.6 67 19.4 93 93 NNW 5 7 29.96 1015 4 6.43736 0.001 0.001
4:26 am 04:26 Cloudy with Light Drizzle 68 20 67 19.4 96 96 NW 6 9 29.97 1015 2.5 4.02335 0.001 0.001
4:32 am 04:32 Cloudy with Light Drizzle 68 20 67 19.4 96 96 NNW 7 11 29.97 1015 2 3.21868 0.001 0.001
4:52 am 04:52 Cloudy with Light Drizzle 68 20 67 19.4 96 96 NNW 5 7 29.96 1015 2 3.21868 0.01 0.254
5:07 am 05:07 Cloudy with Light Drizzle 68 20 67 19.4 96 96 NNW 6 9 29.97 1015 2 3.21868 0.01 0.254
5:47 am 05:47 Cloudy with Light Drizzle 68 20 66 19 94 94 NW 6 9 29.97 1015 2 3.21868 0.03 0.762
5:52 am 05:52 Cloudy with Light Drizzle 68 20 66 18.9 93 93 NNW 6 9 29.97 1015 2 3.21868 0.03 0.762
5:55 am 05:55 Cloudy with Light Drizzle 68 20 66 18.9 93 93 NW 6 9 29.97 1015 3 4.82802 0.001 0.001
6:22 am 06:22 Cloudy 68 20 66 18.9 93 93 NNW 6 9 29.98 1015 7 11.26538 0.001 0.001
6:49 am 06:49 Cloudy with Mist and Fog 68 20 66 19 94 94 NNW 6 9 29.98 1015 6 9.65604 0.001 0.001
6:52 am 06:52 Cloudy with Mist and Fog 68 20 66 18.9 93 93 NNW 7 11 29.98 1015 5 8.0467 0.001 0.001
7:52 am 07:52 Cloudy 68 20 66 18.9 93 93 NNW 6 9 29.99 1016 9 14.48406 0 0
8:34 am 08:34 Mostly Cloudy 69 20.6 67 19.4 93 93 NNW 5 7 29.99 1016 8 12.87472 0 0
8:52 am 08:52 Mostly Cloudy 70 21.1 67 19.4 90 90 N 3 6 30 1016 10 16.0934 0 0
9:52 am 09:52 Cloudy 71 21.7 67 19.4 87 87 Calm 30 1016 10 16.0934 0 0
10:52 am 10:52 Mostly Cloudy 73 22.8 67 19.4 81 81 Calm 30 1016 10 16.0934 0 0
10:59 am 10:59 Mostly Cloudy 73 22.8 67 19.4 81 81 Calm 30 1016 10 16.0934 0 0
11:52 am 11:52 Mostly Cloudy 74 23.3 67 19.4 79 79 Calm 29.99 1016 10 16.0934 0 0
12:52 pm 12:52 Cloudy 74 23.3 67 19.4 79 79 Calm 29.97 1015 10 16.0934 0 0
1:52 pm 13:52 Cloudy 75 23.9 68 20 79 79 E 3 6 29.95 1014 10 16.0934 0 0
2:52 pm 14:52 Mostly Cloudy 77 25 67 19.4 71 71 Calm 29.92 1013 10 16.0934 0 0
3:52 pm 15:52 Mostly Cloudy 77 25 66 18.9 69 69 SSE 5 7 29.91 1013 10 16.0934 0 0
4:52 pm 16:52 Cloudy 75 23.9 68 20 79 79 SSE 5 7 29.9 1013 10 16.0934 0 0
5:52 pm 17:52 Mostly Cloudy 74 23.3 68 20 82 82 S 6 9 29.9 1013 10 16.0934 0 0
6:52 pm 18:52 Mostly Cloudy 73 22.8 67 19.4 81 81 S 6 9 29.89 1012 10 16.0934 0 0
7:52 pm 19:52 Partly Cloudy 72 22.2 67 19.4 84 84 S 5 7 29.9 1013 10 16.0934 0 0
8:52 pm 20:52 Mostly Cloudy 71 21.7 67 19.4 87 87 SSE 3 6 29.92 1013 10 16.0934 0 0
9:52 pm 21:52 Cloudy 70 21.1 68 20 93 93 S 5 7 29.92 1013 10 16.0934 0 0
10:52 pm 22:52 Cloudy 69 20.6 67 19.4 93 93 S 6 9 29.92 1013 10 16.0934 0 0
11:52 pm 23:52 Cloudy 69 20.6 67 19.4 93 93 S 6 9 29.91 1013 10 16.0934 0 0

Powered by AerisWeather